Zurück zum Katalog

CZ-6A DEB

AktivPO
NORAD 61804·DEBRIS·🇨🇳 China

Gestartet Aug 6, 2024 von Taiyuan Satellite Launch Center

Loading…

Nächste Überflüge (nächste 24 Stunden)

TLE

AktuellSource: Space-Track

Epoche: Sep 14, 2026, 07:02 UTC

1 61804U 24140ABU 26257.29323204  .00005386  00000-0  20609-2 0  9998
2 61804  89.0835 272.2840 0065498 238.9515 120.5240 14.29367954104340

Verfolge CZ-6A DEB in Echtzeit mit AllMySat

Download on the App Store